Time,TemperatureF,DewpointF,PressureIn,WindDirection,WindDirectionDegrees,WindSpeedMPH,WindSpeedGustMPH,Humidity,HourlyPrecipIn,Conditions,Clouds,dailyrainin,SoftwareType,DateUTC
2013-04-15 00:02:00,34.4,26.7,30.12,NE,54,0.0,0.0,73,0.00,,,0.00,VWS V13.01,2013-04-15 04:02:00,
2013-04-15 00:32:00,33.6,25.5,30.14,NE,54,0.0,0.0,72,0.00,,,0.00,VWS V13.01,2013-04-15 04:32:00,
2013-04-15 01:02:00,32.8,24.5,30.14,NE,53,0.0,0.0,71,0.00,,,0.00,VWS V13.01,2013-04-15 05:02:00,
2013-04-15 01:32:00,32.5,23.8,30.15,NE,54,0.0,0.0,70,0.00,,,0.00,VWS V13.01,2013-04-15 05:32:00,
2013-04-15 02:02:00,32.2,23.2,30.15,NE,54,0.0,0.0,69,0.00,,,0.00,VWS V13.01,2013-04-15 06:02:00,
2013-04-15 02:32:00,32.2,22.8,30.16,NE,53,0.0,0.0,68,0.00,,,0.00,VWS V13.01,2013-04-15 06:32:00,
2013-04-15 03:02:00,31.9,22.2,30.16,NE,53,0.0,0.0,67,0.00,,,0.00,VWS V13.01,2013-04-15 07:02:00,
2013-04-15 04:02:00,31.5,21.5,30.17,NE,53,0.0,1.0,66,0.00,,,0.00,VWS V13.01,2013-04-15 08:02:00,
2013-04-15 05:02:00,32.1,22.0,30.19,NE,53,0.0,3.0,66,0.00,,,0.00,VWS V13.01,2013-04-15 09:02:00,
2013-04-15 05:32:00,32.1,22.4,30.22,NE,54,0.0,0.0,67,0.00,,,0.00,VWS V13.01,2013-04-15 09:32:00,
2013-04-15 06:32:00,32.3,23.3,30.26,NE,53,0.0,0.0,69,0.00,,,0.00,VWS V13.01,2013-04-15 10:32:00,
2013-04-15 07:02:00,34.6,24.8,30.28,NE,54,0.0,0.0,67,0.00,,,0.00,VWS V13.01,2013-04-15 11:02:00,
2013-04-15 07:32:00,37.0,29.2,30.30,NE,53,0.0,0.0,73,0.00,,,0.00,VWS V13.01,2013-04-15 11:32:00,
2013-04-15 08:02:00,39.9,34.5,30.31,NE,53,0.0,0.0,81,0.00,,,0.00,VWS V13.01,2013-04-15 12:02:00,
2013-04-15 08:32:00,43.2,38.1,30.32,NE,39,5.0,6.0,82,0.00,,,0.00,VWS V13.01,2013-04-15 12:32:00,
2013-04-15 09:32:00,46.1,40.0,30.32,NE,35,0.0,5.0,79,0.00,,,0.00,VWS V13.01,2013-04-15 13:32:00,
2013-04-15 10:02:00,44.9,39.8,30.33,SE,133,7.0,16.0,82,0.00,,,0.00,VWS V13.01,2013-04-15 14:02:00,
2013-04-15 10:32:00,43.0,38.2,30.34,SE,141,9.0,17.0,83,0.00,,,0.00,VWS V13.01,2013-04-15 14:32:00,
2013-04-15 11:02:00,43.4,38.6,30.35,SE,125,7.0,13.0,83,0.00,,,0.00,VWS V13.01,2013-04-15 15:02:00,
2013-04-15 11:32:00,44.3,39.2,30.34,SE,133,12.0,13.0,82,0.00,,,0.00,VWS V13.01,2013-04-15 15:32:00,
2013-04-15 12:02:00,45.6,40.1,30.33,SE,146,4.0,16.0,81,0.00,,,0.00,VWS V13.01,2013-04-15 16:02:00,
2013-04-15 13:02:00,46.1,40.0,30.32,SE,126,11.0,14.0,79,0.00,,,0.00,VWS V13.01,2013-04-15 17:02:00,
2013-04-15 13:32:00,46.5,39.7,30.33,SSE,157,12.0,16.0,77,0.00,,,0.00,VWS V13.01,2013-04-15 17:32:00,
2013-04-15 14:02:00,46.0,39.5,30.33,SSW,205,12.0,18.0,78,0.00,,,0.00,VWS V13.01,2013-04-15 18:02:00,
2013-04-15 14:32:00,46.1,39.6,30.33,SW,217,13.0,15.0,78,0.00,,,0.00,VWS V13.01,2013-04-15 18:32:00,
2013-04-15 15:02:00,45.9,39.1,30.33,SSW,196,16.0,16.0,77,0.00,,,0.00,VWS V13.01,2013-04-15 19:02:00,
2013-04-15 15:32:00,45.8,39.3,30.34,SSW,206,14.0,17.0,78,0.00,,,0.00,VWS V13.01,2013-04-15 19:32:00,
2013-04-15 16:02:00,45.0,39.2,30.33,SW,223,9.0,18.0,80,0.00,,,0.00,VWS V13.01,2013-04-15 20:02:00,
2013-04-15 16:32:00,45.1,38.7,30.33,South,190,6.0,20.0,78,0.00,,,0.00,VWS V13.01,2013-04-15 20:32:00,
2013-04-15 17:02:00,44.2,39.1,30.33,South,190,7.0,17.0,82,0.00,,,0.00,VWS V13.01,2013-04-15 21:02:00,
2013-04-15 17:32:00,44.0,38.9,30.33,SSE,164,3.0,15.0,82,0.00,,,0.00,VWS V13.01,2013-04-15 21:32:00,
2013-04-15 18:02:00,43.1,38.3,30.35,SSW,202,9.0,15.0,83,0.00,,,0.00,VWS V13.01,2013-04-15 22:02:00,
2013-04-15 18:32:00,42.8,38.0,30.34,South,182,4.0,15.0,83,0.00,,,0.00,VWS V13.01,2013-04-15 22:32:00,
2013-04-15 19:02:00,42.5,37.7,30.35,SW,221,14.0,15.0,83,0.00,,,0.00,VWS V13.01,2013-04-15 23:02:00,
2013-04-15 19:32:00,42.2,37.4,30.37,South,191,2.0,15.0,83,0.00,,,0.00,VWS V13.01,2013-04-15 23:32:00,
2013-04-15 20:02:00,42.2,37.4,30.38,SW,236,7.0,11.0,83,0.00,,,0.00,VWS V13.01,2013-04-16 00:02:00,
2013-04-15 20:32:00,42.4,37.6,30.39,SSW,203,6.0,9.0,83,0.00,,,0.00,VWS V13.01,2013-04-16 00:32:00,
2013-04-15 21:02:00,42.4,37.6,30.39,South,190,4.0,13.0,83,0.00,,,0.00,VWS V13.01,2013-04-16 01:02:00,
2013-04-15 22:02:00,42.5,37.7,30.37,SSW,207,4.0,11.0,83,0.00,,,0.00,VWS V13.01,2013-04-16 02:02:00,
2013-04-15 22:32:00,42.3,37.5,30.38,SSW,205,0.0,7.0,83,0.00,,,0.00,VWS V13.01,2013-04-16 02:32:00,
2013-04-15 23:02:00,42.4,37.3,30.37,SSW,203,0.0,7.0,82,0.00,,,0.00,VWS V13.01,2013-04-16 03:02:00,
2013-04-15 23:32:00,42.6,37.5,30.38,SW,236,7.0,11.0,82,0.00,,,0.00,VWS V13.01,2013-04-16 03:32:00,